Change the Weather History Date:

Tuesday, December 3, 2013

  Actual Average Record
Temperature  
Mean Temperature 68 °F 55 °F  
Max Temperature 86 °F 66 °F 86 °F (1942)
Min Temperature 50 °F 44 °F 27 °F (1929)
Degree Days  
Heating Degree Days 0 11  
Month to date heating degree days 0 31  
Since 1 July heating degree days 228 242  
Cooling Degree Days 3 1  
Month to date cooling degree days 8 3  
Year to date cooling degree days 3514 3120  
Growing Degree Days 18 (Base 50)    
Moisture  
Dew Point 48 °F    
Average Humidity 55    
Maximum Humidity 89    
Minimum Humidity 20    
Precipitation  
Precipitation 0.00 in 0.06 in 0.63 in (1923)
Month to date precipitation 0.00 0.17  
Year to date precipitation 31.45 30.53  
Snow  
Snow 0.00 in - - ()
Month to date snowfall 0.0  
Since 1 July snowfall 0.0  
Snow Depth 0.00 in    
Sea Level Pressure  
Sea Level Pressure 29.65 in    
Wind  
Wind Speed 4 mph (WSW)    
Max Wind Speed 12 mph    
Max Gust Speed 15 mph    
Visibility 10 miles    
Events      
T = Trace of Precipitation, MM = Missing Value Source: NWS Daily Summary

Daily Weather History Graph

Daily Weather History Graph

Search for Another Location

Airport or City:

Trip Planner

Search our weather history database for the weather conditions in past years. The results will help you decide how hot, cold, wet, or windy it might be!

Date:

Astronomy

Dec. 03, 2013 Rise Set
Actual Time 7:12 AM CST 5:34 PM CST
Civil Twilight 6:46 AM CST 6:00 PM CST
Nautical Twilight 6:17 AM CST 6:30 PM CST
Astronomical Twilight 5:48 AM CST 6:58 PM CST
Moon 7:45 AM CST (12/3) 6:37 PM CST (12/3)
Length of Visible Light 11h 13m
Length of Day
10h 21m
New Moon, 1% of the Moon is Illuminated
Dec 3
New Moon
Dec 9
First Quarter
Dec 17
Full
Dec 25
Last Quarter
Jan 1
New

Hourly Weather History & Observations

Time (CST) Temp. Dew Point Humidity Pressure Visibility Wind Dir Wind Speed Gust Speed Precip Events Conditions
12:51 AM 60.1 °F 53.1 °F 78% 29.68 in 10.0 mi West 5.8 mph - N/A   Clear
1:51 AM 57.0 °F 52.0 °F 83% 29.68 in 10.0 mi West 4.6 mph - N/A   Clear
2:51 AM 57.0 °F 52.0 °F 83% 29.66 in 10.0 mi Calm Calm - N/A   Partly Cloudy
3:51 AM 55.0 °F 51.1 °F 86% 29.65 in 10.0 mi Calm Calm - N/A   Partly Cloudy
4:51 AM 54.0 °F 50.0 °F 86% 29.65 in 10.0 mi Calm Calm - N/A   Partly Cloudy
5:51 AM 52.0 °F 48.9 °F 89% 29.65 in 10.0 mi Calm Calm - N/A   Partly Cloudy
6:51 AM 51.1 °F 48.0 °F 89% 29.67 in 10.0 mi Calm Calm - N/A   Partly Cloudy
7:51 AM 55.0 °F 51.1 °F 86% 29.68 in 10.0 mi Calm Calm - N/A   Scattered Clouds
8:51 AM 61.0 °F 55.9 °F 83% 29.70 in 10.0 mi Calm Calm - N/A   Partly Cloudy
9:51 AM 73.0 °F 57.9 °F 59% 29.70 in 10.0 mi WSW 3.5 mph - N/A   Partly Cloudy
10:51 AM 79.0 °F 52.0 °F 39% 29.70 in 10.0 mi WSW 5.8 mph - N/A   Scattered Clouds
11:51 AM 82.0 °F 46.9 °F 29% 29.67 in 10.0 mi SSW 9.2 mph - N/A   Partly Cloudy
12:51 PM 84.0 °F 44.1 °F 25% 29.64 in 10.0 mi WSW 9.2 mph - N/A   Partly Cloudy
1:51 PM 84.9 °F 45.0 °F 25% 29.61 in 10.0 mi SW 6.9 mph - N/A   Partly Cloudy
2:51 PM 84.9 °F 39.9 °F 20% 29.60 in 10.0 mi WSW 9.2 mph - N/A   Mostly Cloudy
3:51 PM 84.0 °F 39.9 °F 21% 29.59 in 10.0 mi SW 9.2 mph - N/A   Mostly Cloudy
4:51 PM 81.0 °F 41.0 °F 24% 29.59 in 10.0 mi SSW 5.8 mph - N/A   Overcast
5:51 PM 78.1 °F 42.1 °F 28% 29.61 in 10.0 mi SSW 5.8 mph - N/A   Mostly Cloudy
6:51 PM 75.0 °F 44.1 °F 33% 29.62 in 10.0 mi SSW 5.8 mph - N/A   Mostly Cloudy
7:51 PM 73.0 °F 44.1 °F 35% 29.65 in 10.0 mi SSW 8.1 mph - N/A   Mostly Cloudy
8:51 PM 70.0 °F 48.0 °F 46% 29.66 in 10.0 mi WSW 5.8 mph - N/A   Scattered Clouds
9:51 PM 63.0 °F 48.0 °F 58% 29.67 in 10.0 mi NW 3.5 mph - N/A   Scattered Clouds
10:51 PM 57.9 °F 48.0 °F 70% 29.68 in 10.0 mi NW 3.5 mph - N/A   Mostly Cloudy
11:51 PM 57.9 °F 48.9 °F 72% 29.67 in 10.0 mi WNW 3.5 mph - N/A   Mostly Cloudy